header image
aktuelles Wetter

 Wetter METAR LOWG 182050Z 00000KT CAVOK 20/16 Q1015 NOSIG=

Willkommen arrow GSV Category 1 arrow Privatpilotenkurs in Graz


Träumst du noch - oder fliegst du schon Sollte ersteres zutreffen, besteht jetzt die Möglichkeit deine Träume in die Realität umzusetzen. Eine Ausbildung ohne Stress in geselliger Vereinsatmosphäre. Sicherheit, hochwertige Ausbildung sowie günstiges Fliegen mit TOP gewarteten Flugzeugen ... 


Next>
GSV-NEWSFLASH
Anfliegen2018

Unser Anfliegen am Sonntag dem 8.4.2018 fand bei herrlichem Frühlingswetter in LOKW statt.

Read more...
Privatpilotenausbildung in Graz
geänderte Sprechfunkverfahren
Die ACG hat einige Anpassungen an der Phrasologie durchgeführt ...
Read more...
Bilder
P1000699.JPG
Wer ist Online
No Users Online